Location: Kaisvere
(58.3586°N, 22.4819°E)
Time: 16:41:31
(UTC+00:00)

Daily predictions for brighter satellites

Satellite Brightness Start Highest point End
(mag) Time Altitude Azimuth Time Altitude Azimuth Time Altitude Azimuth
NOSS 3-1 (A) 3.9 14:21:07 10° WNW 14:27:36 60° N 14:35:20 10° E
SL-16 R/B 3.1 14:23:02 10° NNE 14:29:06 59° WNW 14:35:08 10° SW
NOSS 3-4 (A) 3.7 14:23:25 10° SW 14:29:29 70° SE 14:36:05 10° ENE
NOSS 3-4 (C) 3.7 14:23:31 10° SW 14:29:35 70° SE 14:36:11 10° ENE
Meteor PRIRODA 4.3 14:32:04 10° S 14:35:40 59° WSW 14:39:17 10° NNW
NOSS 2-2 (C) 3.7 14:33:26 10° WSW 14:37:22 66° NNW 14:42:23 10° ENE
Cosmos 1340 4.2 14:33:52 10° NNW 14:37:26 39° W 14:40:59 10° SSW
Uosat 12 SS-18 rocket 4.4 14:32:59 10° NW 14:38:25 64° NNE 14:42:58 10° ESE
SL-16 R/B 3.9 14:35:41 10° SE 14:38:50 15° E 14:42:00 10° ENE
Cosmos 1743 4.0 14:36:27 10° N 14:39:24 20° ENE 14:42:21 10° ESE
Cosmos 1992 Rocket 4.4 14:35:52 10° NNW 14:41:05 70° WSW 14:46:17 10° SSE
Envisat 3.8 14:37:41 10° ESE 14:41:58 28° NE 14:46:16 10° N
Cosmos 1943 Rocket 2.5 14:36:42 10° NW 14:42:08 44° NE 14:47:30 10° ESE
COSMOS 2455 3.3 14:38:03 10° WSW 14:43:58 55° NNW 14:49:55 10° NE
Cosmos 2237 Rocket 3.0 14:39:56 10° S 14:45:00 34° ESE 14:50:05 10° NE
Cosmos 2251 Rocket 4.1 14:41:47 10° S 14:46:43 41° ESE 14:51:38 10° NE
Cosmos 2322 Rocket 3.0 14:42:22 10° WSW 14:47:46 44° NW 14:53:14 10° NE
RESURS DK-1 2.5 14:45:37 10° SSW 14:49:42 63° SE 14:53:44 10° NE
Cosmos 2219 Rocket 2.3 14:44:13 10° SSW 14:49:48 71° ESE 14:55:28 10° NE
Helios 1A Rocket 2.9 14:46:15 10° SSE 14:50:20 82° ENE 14:54:26 10° NNW
Cosmos 1536 2.8 14:46:50 10° N 14:50:49 59° ENE 14:54:47 10° SSE
Cosmos 1697 Rocket 4.1 14:46:25 10° WNW 14:50:57 24° NNW 14:55:30 10° NE
Cosmos 1500 3.1 14:47:30 10° NNW 14:51:17 86° ENE 14:55:02 10° SSE
Feng Yun 1-1 Rocket 4.3 14:46:50 10° SE 14:52:03 52° ENE 14:57:21 10° NNW
Cosmos 1782 Rocket 4.2 14:49:48 10° N 14:53:47 33° ENE 14:57:43 10° SE
Radarsat Rocket 4.0 14:49:33 10° SSE 14:55:28 89° WSW 15:01:23 10° NNW
Cosmos 2333 Rocket 2.3 14:49:55 10° SSW 14:55:40 76° SE 15:01:29 10° NE
Meteor 2-6 Rocket 4.2 14:50:45 10° S 14:56:06 70° E 15:01:37 10° NNE
ASTEX 1 4.3 14:52:11 10° N 14:57:00 51° WNW 15:01:44 10° SSW
NOSS 2-2 (E) 4.0 14:53:44 10° W 14:57:47 56° NNW 15:02:34 12° ENE
Cosmos 1689 Rocket 2.8 14:55:13 10° NNE 14:58:06 37° E 15:00:56 10° S
Cosmos 1812 3.1 14:54:58 10° SSE 14:58:39 43° E 15:02:21 10° NNE
SL-16 R/B 3.2 14:54:30 10° W 14:59:48 38° NNW 15:05:07 10° NE
Lacrosse 5 rocket 2.1 14:56:16 10° SW 15:00:20 43° SSE 15:03:57 11° E
SL-4 R/B 3.4 15:00:09 10° WSW 15:03:24 30° S 15:06:52 10° ESE
AQUARIUS 4.4 14:59:11 10° SE 15:03:31 48° ENE 15:07:52 10° N
Landsat 5 3.8 15:01:04 10° NNE 15:05:02 66° WNW 15:09:08 10° SSW
Cosmos 494 Rocket 4.5 15:00:14 10° SW 15:05:26 59° NW 15:10:38 10° NNE
ATLAS 2AS CENTAUR R/B 3.2 14:59:05 10° WSW 15:07:12 81° NNW 15:14:20 13° ENE
Cosmos 1862 Rocket 3.8 15:03:30 10° S 15:07:47 52° E 15:12:07 10° NNE
STARLINK-46 4.4 15:05:54 10° SW 15:08:10 25° S 15:10:26 10° ESE
Aureole 2 Rocket 4.3 15:07:00 10° N 15:08:24 12° NNE 15:08:24 12° NNE
CZ-4C R/B 4.1 15:05:42 10° N 15:08:42 38° WNW 15:11:40 10° SW
CSL-04 Rocket 4.5 15:04:35 10° ESE 15:08:58 27° NE 15:13:24 10° N
SeaSat 1 3.8 15:07:09 13° ENE 15:10:06 22° NNE 15:13:49 10° NNW
Okean 2 Rocket 4.0 15:07:12 10° N 15:11:02 26° ENE 15:14:51 10° ESE
Cosmos 405 Rocket 3.9 15:10:00 10° N 15:12:51 20° ENE 15:15:43 10° ESE
Aureole 1 Rocket 3.8 15:11:21 10° SSE 15:13:56 23° ESE 15:15:33 17° ENE
Cosmos 1782 3.9 15:13:00 10° SW 15:16:49 43° WNW 15:20:38 10° N
Cosmos 1980 3.9 15:11:39 10° SSW 15:17:09 54° ESE 15:21:56 14° NE
H-2A R/B 3.8 15:17:29 11° NE 15:17:29 11° NE 15:18:54 10° NNE
NOAA 12 4.2 15:12:55 10° SE 15:18:02 52° ENE 15:23:09 10° NNW
Sich 1 Rocket 3.9 15:13:52 10° N 15:18:03 40° ENE 15:22:12 10° SE
Aureole 3 Rocket 4.2 15:18:39 10° NNE 15:19:31 14° NNE 15:19:31 14° NNE
Exosat Rocket 3.7 15:17:26 10° SSW 15:22:19 57° ESE 15:26:52 14° NE
Cosmos 1707 Rocket 4.0 15:18:05 10° SSW 15:22:33 66° WNW 15:27:02 10° N
Cosmos 1763 Rocket 4.2 15:18:56 10° NNW 15:23:27 31° NE 15:27:37 12° E
Cosmos 2297 4.1 15:18:15 10° NW 15:23:56 68° WSW 15:29:34 10° SSE
Cosmos 1441 Rocket 3.1 15:20:06 10° NNW 15:23:56 71° ENE 15:27:42 10° SSE
Ariane Rocket 4.2 15:23:27 16° ENE 15:25:27 20° NE 15:29:04 10° N
Meteor 1-28 Rocket 3.8 15:21:49 10° N 15:25:33 58° WNW 15:29:16 10° SSW
USA 215 4.3 15:22:46 14° E 15:27:33 30° SE 15:33:10 10° SSW
COBE Rocket 4.3 15:23:30 10° NNE 15:27:50 37° E 15:32:12 10° SSE
Cosmos 1867 4.2 15:25:19 10° NW 15:30:44 61° SW 15:36:06 10° SSE
SMAP 3.0 15:26:43 10° SSE 15:31:23 84° ENE 15:36:06 10° NNW
Cosmos 2263 4.4 15:25:47 10° NW 15:31:29 54° NE 15:37:10 10° ESE
Cosmos 1315 Rocket 4.1 15:28:54 10° SW 15:32:44 40° WNW 15:36:39 10° N
H-2A R/B 2.5 15:29:25 10° SSE 15:33:05 77° ENE 15:36:49 10° NNW
Cosmos 1666 2.8 15:31:17 10° NNW 15:35:03 76° W 15:38:47 10° S
Okean O Rocket 3.0 15:31:31 10° S 15:35:38 42° W 15:39:49 10° NNW
Cosmos 1908 Rocket 3.7 15:32:07 10° NNW 15:36:32 78° W 15:40:53 10° S
Okean 1-7 3.6 15:33:19 10° SSE 15:37:20 37° E 15:40:17 17° NNE
Meteor 1-10 Rocket 4.4 15:32:28 10° SSW 15:38:04 74° WNW 15:43:49 10° NNE
CZ-4 R/B 1.9 15:37:34 10° SE 15:41:04 34° ENE 15:44:35 10° N
Cosmos 1092 Rocket 4.0 15:35:06 10° S 15:41:14 59° E 15:47:19 10° NNE
Cosmos 1300 Rocket 4.1 15:39:24 10° N 15:43:23 34° ENE 15:47:20 10° SE
H-2A R/B 4.0 15:40:19 10° N 15:43:33 23° NW 15:46:47 10° WSW
Cosmos 2242 Rocket 3.6 15:39:50 10° S 15:44:24 72° E 15:49:00 10° NNE
ALOS 4.2 15:40:29 10° SSW 15:44:39 31° W 15:48:52 10° NNW
IRS-1C Rocket 4.3 15:39:57 10° SSE 15:45:13 74° WSW 15:50:31 10° NNW
Cosmos 1975 3.0 15:41:31 10° N 15:45:26 48° ENE 15:49:19 10° SE
YAOGAN 6 2.9 15:42:33 10° SE 15:45:58 41° ENE 15:49:26 10° N
COSMO-SKYMED 1 3.8 15:46:20 21° E 15:46:20 21° E 15:49:23 10° SE
COSMOS 2428 3.1 15:43:05 10° SW 15:48:45 63° NW 15:53:18 16° NNE
Meteor 2-9 Rocket 4.3 15:43:32 10° NNW 15:49:21 57° ENE 15:55:04 10° SE
NOSS 2-2 (D) 4.2 15:46:24 10° W 15:50:31 48° N 15:53:18 24° ENE
Cosmos 1544 4.4 15:47:22 10° N 15:49:12 22° NNE 15:49:12 22° NNE
Meteor 1-27 Rocket 3.9 15:45:45 10° SSW 15:51:37 86° WNW 15:57:36 10° NNE
CZ-4B R/B 2.9 15:51:17 10° N 15:54:32 36° WNW 15:57:44 10° SW
Cosmos 841 Rocket 4.2 15:50:21 10° NNW 15:55:03 33° NE 15:56:45 26° ENE
Cosmos 921 Rocket 4.0 15:51:24 10° NW 15:55:32 48° WSW 15:59:44 10° S
YAOGAN 1 2.9 15:51:30 10° SE 15:55:33 41° ENE 15:59:38 10° N
YAOGAN 3 4.5 15:51:47 10° SSE 15:56:10 83° ENE 16:00:34 10° NNW
Lacrosse 4 Rocket 1.9 15:54:46 10° NW 15:58:42 39° NNE 15:59:49 33° ENE
NOAA 11 4.5 15:54:35 10° SE 15:59:44 43° ENE 16:04:55 10° N
Cosmos 1174 4.5 15:55:53 10° SSW 15:59:57 35° SE 16:00:48 31° E
Cosmos 1656 Rocket 3.7 15:55:20 10° NW 16:00:41 53° NE 16:04:37 18° ESE
NOSS 3-1 (C) 4.0 15:55:10 10° WNW 16:02:11 84° SW 16:10:26 10° SE
Cosmos 2360 Rocket 3.4 15:57:11 10° W 16:02:20 34° NNW 16:06:10 16° NNE
Okean-O 2.6 15:58:18 10° SSE 16:02:45 88° WSW 16:07:13 10° NNW
Cosmos 540 Rocket 4.1 16:00:23 10° NNW 16:05:00 33° NE 16:06:00 30° ENE
USA 267 4.3 16:00:09 10° SE 16:06:20 43° SW 16:12:33 10° WNW
Okean 1 Rocket 4.5 16:03:01 10° N 16:05:01 21° NNE 16:05:01 21° NNE
Cosmos 2369 Rocket 2.2 16:01:54 10° NW 16:07:34 88° SW 16:13:14 10° SE
ATLAS 5 CENTAUR R/B 2.9 16:06:31 10° S 16:07:18 16° SSE 16:07:18 16° SSE
S3M 3.9 16:03:02 10° N 16:09:14 63° ENE 16:15:19 10° SSE
Cosmos 1980 Rocket 3.7 16:05:45 10° NW 16:10:16 23° N 16:12:19 19° NNE
Cosmos 1263 4.4 16:08:24 10° SSW 16:11:28 76° WNW 16:13:23 24° N
SL-16 R/B 4.5 16:07:16 10° N 16:11:41 21° NW 16:16:07 10° W
Cosmos 1140 Rocket 3.9 16:08:05 10° S 16:12:52 40° ESE 16:14:11 34° ENE
Cosmos 1428 Rocket 4.5 16:06:49 10° S 16:12:56 63° E 16:19:09 10° NNE
Nadezhda 4 Rocket 4.3 16:07:10 10° SSW 16:13:27 70° WNW 16:19:46 10° N
USA 229 DEB 4.0 16:06:34 10° WNW 16:13:40 76° SW 16:21:07 10° SE
USA 229 4.0 16:06:40 10° WNW 16:13:46 76° SW 16:21:12 10° SE
NOSS 0 Rocket 4.1 16:08:17 10° SW 16:14:33 76° NW 16:18:44 22° NE
PSLV R/B 4.0 16:11:32 17° NNE 16:14:43 80° WNW 16:18:51 10° SSW
Cosmos 1743 3.1 16:11:45 10° NNW 16:15:36 65° W 16:19:27 10° S
NOSS 3-1 (A) 3.9 16:12:09 10° WNW 16:19:09 89° SSW 16:26:42 13° SE
Cosmos 1553 Rocket 4.0 16:12:56 10° NNW 16:19:22 85° E 16:25:48 10° SSE
Cosmos 468 Rocket 3.9 16:14:49 10° NNW 16:20:00 69° NE 16:24:32 14° SE
NOSS 3-4 (A) 3.8 16:14:24 10° W 16:20:37 63° NNW 16:24:03 30° NE
Envisat 3.2 16:15:33 10° S 16:20:38 73° WSW 16:25:46 10° NNW
NOSS 3-4 (C) 3.8 16:14:30 10° W 16:20:43 63° NNW 16:24:09 30° NE
SL-16 R/B 2.2 16:16:17 10° SSW 16:21:53 61° ESE 16:24:20 33° NE
Meteor 1-18 Rocket 4.2 16:17:10 10° S 16:22:43 60° E 16:26:31 20° NNE
Cosmos 2151 Rocket 3.5 16:18:40 10° N 16:23:04 64° ENE 16:27:26 10° SSE
Cosmos 1943 Rocket 2.6 16:20:36 10° NW 16:26:11 63° WSW 16:31:42 10° SSE
RESURS DK-1 3.7 16:24:14 10° W 16:28:01 33° NW 16:29:38 25° N
Cosmos 1939 Rocket 4.2 16:30:13 26° N 16:30:13 26° N 16:32:06 10° N
NOSS 2-2 (C) 4.3 16:24:22 10° WNW 16:28:37 48° N 16:30:02 38° NE
Cosmos 2237 Rocket 2.4 16:23:05 10° SW 16:28:47 69° NW 16:32:03 26° NNE
Cosmos 2251 Rocket 4.2 16:23:49 10° SW 16:28:58 51° NW 16:32:27 20° NNE
Cosmos 1689 Rocket 4.5 16:27:21 13° NNW 16:29:21 22° WNW 16:31:46 10° WSW
Cosmos 407 Rocket 3.4 16:24:39 10° SSW 16:29:51 68° ESE 16:31:55 37° NE
COSMOS 2455 3.7 16:25:27 10° WNW 16:31:01 37° N 16:33:10 28° NE
Cosmos 2344 4.2 16:24:14 10° WNW 16:33:03 85° SW 16:45:14 10° SE
Cosmos 2322 Rocket 3.7 16:28:37 10° WNW 16:33:13 24° NNW 16:35:27 20° NNE
Cosmos 2219 Rocket 3.2 16:28:52 10° WSW 16:34:11 40° NW 16:37:23 22° NNE
Cosmos 2026 Rocket 3.9 16:28:13 10° S 16:34:17 89° E 16:40:27 10° NNE
GENESIS II 4.2 16:30:16 10° NW 16:34:25 84° NE 16:35:03 63° ESE
SKYMED 2 3.8 16:34:59 47° ESE 16:34:59 47° ESE 16:38:45 10° S
Cosmos 1697 Rocket 3.9 16:32:06 10° NW 16:36:45 25° NNE 16:37:19 25° NNE
FengYun 1-2 T 4.4 16:31:24 10° S 16:36:53 74° WSW 16:42:28 10° NNW
NOAA 15 4.5 16:32:42 10° SSE 16:37:59 89° ENE 16:43:17 10° NNW
CZ-4C R/B 3.8 16:35:18 10° SSE 16:37:20 18° SE 16:37:20 18° SE
Lacrosse 5 rocket 1.2 16:35:07 10° W 16:39:17 73° S 16:39:35 69° SE
FALCON 9 DEB 4.5 16:37:02 10° SW 16:39:56 31° S 16:39:56 31° S
Cosmos 2333 Rocket 3.3 16:35:03 10° WSW 16:40:27 39° NNW 16:43:33 23° NNE
SL-4 R/B 3.8 16:39:15 10° WSW 16:42:23 24° SSW 16:43:44 20° SSE
IRIDIUM 106 4.4 16:40:08 10° SSE 16:44:50 51° E 16:44:50 51° E
Cosmos 1814 Rocket 4.0 16:40:00 10° NNW 16:45:11 55° NE 16:45:32 54° ENE
SL-16 R/B 3.7 16:40:55 10° WNW 16:45:28 24° N 16:47:05 21° NNE
Cosmos 2208 Rocket 4.0 16:40:38 10° NNW 16:46:04 67° NE 16:47:35 46° ESE
SeaSat 1 2.8 16:46:55 45° NE 16:46:55 45° NE 16:51:30 10° NNW
CSL-04 Rocket 3.6 16:43:32 10° SSE 16:48:50 83° WSW 16:54:14 10° NNW
NOSS 2-2 (E) 4.3 16:44:36 10° WNW 16:49:07 52° N 16:49:57 47° NE
Cosmos 405 Rocket 3.1 16:45:33 10° NNW 16:49:13 60° W 16:52:53 10° S
Okean 2 Rocket 3.6 16:45:02 10° NNW 16:49:28 60° W 16:53:54 10° S
Lacrosse 5 3.7 16:45:58 10° S 16:48:09 18° SSE 16:48:09 18° SSE
Cosmos 1703 Rocket 4.3 16:45:14 10° SSW 16:49:38 54° WNW 16:52:43 19° N
Okean 1 3.4 16:47:40 10° SSW 16:51:38 72° WNW 16:52:16 58° NNW
Meteor 2-4 Rocket 3.7 16:49:03 10° S 16:54:42 56° E 16:55:02 55° E
H-2A R/B 3.5 16:58:07 22° N 16:58:07 22° N 17:00:04 10° N
Cosmos 883 Rocket 4.4 16:49:39 10° NNW 16:56:03 78° ENE 17:02:21 10° SSE
Aureole 1 Rocket 3.4 16:54:51 10° SW 16:58:03 45° NW 16:58:13 44° NW
Cosmos 2315 Rocket 3.9 16:51:50 10° N 16:58:13 69° ENE 17:04:28 10° SSE
ATLAS 2AS CENTAUR R/B 3.2 16:51:04 10° W 16:59:02 60° N 17:01:47 40° NE
Cosmos 1570 Rocket 3.9 16:53:55 10° NNW 16:59:13 86° ENE 17:00:39 49° SE
Cosmos 1980 4.4 16:55:54 10° WSW 17:01:23 48° NW 17:03:47 31° NNE
Meteor 1-15 Rocket 4.1 16:56:40 10° NNW 17:02:18 64° ENE 17:02:51 61° E
Cosmos 2221 Rocket 3.5 16:57:52 10° SSW 17:02:14 86° SSW 17:02:14 86° SSW
Meteor 2-8 Rocket 4.3 16:56:54 10° NNW 17:03:00 79° ENE 17:09:05 10° SSE
Ariane Rocket 2.8 17:03:39 72° ENE 17:03:42 72° ENE 17:08:46 10° NNW
Cosmos 192 4.3 16:59:12 10° NNW 17:04:12 80° WSW 17:05:33 49° SSE
ARGOS 4.3 17:07:40 28° NNE 17:07:40 28° NNE 17:10:29 10° N
Cosmos 1763 Rocket 3.5 17:00:41 10° NNW 17:05:47 77° WSW 17:07:43 39° SSE
Meteor 1-19 Rocket 4.0 17:05:27 10° SSW 17:10:55 87° WNW 17:12:45 44° NNE
USA 215 3.3 17:10:07 51° ESE 17:11:27 61° SSE 17:17:55 10° WSW
Okean 1-7 4.4 17:10:49 10° SW 17:14:56 39° WNW 17:17:10 23° NNW
CZ-4 R/B 2.8 17:12:31 10° SSW 17:16:07 36° W 17:19:43 10° NNW
Cosmos 1241 Rocket 4.5 17:10:50 10° SSW 17:17:00 60° SE 17:17:00 60° SE
Meteor 2-13 Rocket 4.3 17:13:58 10° SSW 17:20:03 88° WNW 17:23:39 27° NNE
COSMO-SKYMED 1 3.2 17:23:33 52° SW 17:23:33 52° SW 17:26:58 10° SSW
Cosmos 614 Rocket 4.4 17:20:49 10° SW 17:25:49 55° NW 17:26:38 49° NNW
Cosmos 1190 Rocket 4.3 17:23:19 10° SW 17:28:29 61° NW 17:29:07 57° NNW
Cosmos 676 Rocket 4.1 17:26:11 10° SSW 17:30:53 72° WSW 17:30:53 72° WSW
YAOGAN 1 4.0 17:27:43 10° SSW 17:31:43 37° W 17:35:47 10° NNW
Cosmos 1655 Rocket 4.1 17:27:46 10° SSW 17:34:04 74° WNW 17:39:00 17° N
COSMOS 2428 4.1 17:29:10 10° W 17:34:05 28° NNW 17:35:19 26° N
Cosmos 1954 Rocket 4.2 17:31:33 10° SW 17:36:01 65° WSW 17:36:01 65° WSW
Cosmos 841 Rocket 3.7 17:32:14 10° NNW 17:36:52 66° WNW 17:36:52 66° WNW
Lacrosse 4 Rocket 2.8 17:33:28 10° NW 17:36:09 36° WNW 17:36:09 36° WNW
MOS 1 4.4 17:47:03 72° NW 17:47:03 72° NW 17:52:14 10° NNW
Cosmos 540 Rocket 4.1 17:41:57 10° NNW 17:45:52 51° NW 17:45:52 51° NW
Cosmos 2360 Rocket 3.8 17:43:30 10° NW 17:47:55 23° N 17:47:55 23° N
Cosmos 2369 Rocket 4.3 17:46:35 10° NW 17:50:57 24° WSW 17:55:19 10° SSW
Cosmos 1140 Rocket 4.2 17:49:37 10° SW 17:54:14 49° WNW 17:54:14 49° WNW
Cosmos 1980 Rocket 3.7 17:50:51 10° NW 17:54:05 26° N 17:54:05 26° N
Cosmos 2266 Rocket 4.3 17:58:10 10° SSW 18:04:33 67° WNW 18:05:45 55° NNW
SL-16 R/B 3.0 18:00:49 10° WSW 18:06:14 45° NW 18:06:14 45° NW
NOSS 3-4 (A) 4.0 18:05:57 10° WNW 18:11:30 55° NNW 18:11:30 55° NNW
NOSS 3-4 (C) 4.0 18:06:03 10° WNW 18:11:35 55° NNW 18:11:35 55° NNW
Cosmos 2237 Rocket 3.7 18:08:50 10° W 18:13:49 30° NNW 18:13:53 30° NNW
COSMOS 2455 4.0 18:12:23 10° NW 18:16:18 35° NNW 18:16:18 35° NNW
Lacrosse 5 rocket 4.1 18:14:19 10° W 18:15:14 16° W 18:15:14 16° W
Cosmos 2322 Rocket 4.1 18:14:24 10° NW 18:17:15 22° NNW 18:17:15 22° NNW
Cosmos 2219 Rocket 4.0 18:15:05 10° WNW 18:19:06 24° NNW 18:19:06 24° NNW
Cosmos 1697 Rocket 4.3 18:16:28 10° NW 18:19:04 26° NNW 18:19:04 26° NNW
SeaSat 1 4.2 18:26:43 28° NW 18:26:43 28° NW 18:29:11 10° NW
Cosmos 2333 Rocket 4.0 18:21:35 10° WNW 18:25:33 24° NNW 18:25:33 24° NNW
CZ-4C R/B 4.2 18:21:19 10° SW 18:22:34 18° SW 18:22:34 18° SW
SL-16 R/B 4.2 18:26:29 10° NW 18:28:56 21° NNW 18:28:56 21° NNW
Lacrosse 5 4.4 18:26:48 10° SW 18:27:22 13° SW 18:27:22 13° SW
H-2A R/B 4.4 18:38:44 16° NNW 18:38:44 16° NNW 18:39:47 10° NNW
ATLAS 2AS CENTAUR R/B 3.4 18:42:58 10° WNW 18:49:12 56° NW 18:49:12 56° NW
USA 215 4.2 18:57:28 40° W 18:57:28 40° W 19:01:27 10° W
